Regional Weather Roundup
Issued by NWS

Home | Current Version | Previous Version | Text Only | Print | Product List | Glossary Off
Versions: 1 2 3 4 5 6 7 8 9 10 11 12 13 14 15 16 17 18 19 20 21 22 23 24 25 26 27 28 29 30 31 32 33 34 35 36 37 38 39 40 41 42 43 44 45 46 47 48 49 50

000
ASUS43 KIND 221009
RWRIN

WEATHER ROUNDUP FOR INDIANA
NATIONAL WEATHER SERVICE INDIANAPOLIS IN
600 AM EDT WED OCT 22 2014

NOTE: "FAIR" INDICATES FEW OR NO CLOUDS BELOW 12,000 FEET WITH NO
SIGNIFICANT WEATHER AND/OR OBSTRUCTIONS TO VISIBILITY.

* - STATION DOES NOT REPORT WEATHER SUCH AS PRECIPITATION OR FOG.

+ - STATION NOT QUALITY CONTROLLED BY THE NATIONAL WEATHER SERVICE.
    USE DATA WITH CAUTION...ESPECIALLY DEWPOINT AND RELATIVE
    HUMIDITY OBSERVATIONS.

INZ001>003-010>013-019-020-221100-
NORTHWEST INDIANA

CITY           SKY/WX    TMP DP  RH WIND       PRES   REMARKS
GARY /AIRPORT/ PTCLDY    36  34  93 CALM      30.31R
KNOX *+        CLEAR     32  31  95 CALM      30.30R
LA PORTE +     CLEAR     33  33 100 CALM      30.32R
MICHIGAN CITY+ CLEAR     32  32 100 CALM      30.32R
MONTICELLO +   CLEAR     37  36  93 CALM      30.29R
RENSSELAER +   CLEAR     36  36 100 NE3       30.31R
VALPARAISO     CLEAR     33  32  96 NE3       30.31R

$$

LMZ046-743>745-221100-
SOUTHERN LAKE MICHIGAN

STATION/POSITION TIME  TEMP WIND        PRES
                       AIR  DIR/SP/G
                 (UTC) (F)  (DEG/KT/KT) (MB)
MICHIGAN CITY    1000   39  100/  8/ 11   N/A

$$

INZ004-005-014>016-021>024-221100-
NORTH CENTRAL INDIANA

CITY           SKY/WX    TMP DP  RH WIND       PRES   REMARKS
GOSHEN         CLEAR     35  33  92 N3        30.30R
LOGANSPORT +   CLEAR     34  32  93 N5        30.30R WCI  30
PERU/GRISSOM   CLEAR     38  38 100 N5        30.29R
ROCHESTER +    CLEAR     36  36 100 CALM      30.30R
SOUTH BEND     CLEAR     33  30  88 NE3       30.31R
WARSAW +       CLEAR     34  32  93 CALM      30.29R

$$

INZ006>009-017-018-025>027-221100-
NORTHEAST INDIANA

CITY           SKY/WX    TMP DP  RH WIND       PRES   REMARKS
ANGOLA *+        N/A     36  14  41 N3        30.29R
AUBURN +       CLOUDY    41  34  75 N6        30.29R
FORT WAYNE     PTCLDY    38  35  89 N7        30.29R
HUNTINGTON +   CLEAR     35  34  94 N3        30.28R

$$

INZ028-029-035-036-043>045-051>053-221100-
WEST CENTRAL INDIANA

CITY           SKY/WX    TMP DP  RH WIND       PRES   REMARKS
GREENCASTLE +  CLEAR     37  36  93 CALM      30.27R
LAFAYETTE      CLEAR     34  32  92 N3        30.29R
TERRE HAUTE    CLEAR     36  34  92 NE3       30.27R

$$

INZ030>032-037>040-046>048-054>057-064-065-221100-
CENTRAL INDIANA

CITY           SKY/WX    TMP DP  RH WIND       PRES   REMARKS
CP ATTERBURY + CLEAR     37  34  87 N6        30.26R
FRANKFORT +    CLEAR     38  38 100 N5        30.29R
GREENWOOD *+   CLEAR     39  32  75 N5        30.27R
INDIANAPOLIS   CLEAR     40  35  83 N8        30.26R
-EAGLE CREEK   CLEAR     40  35  83 N5        30.27R
KOKOMO *+      CLEAR     37  34  87 N5        30.29R
MARION +       CLEAR     37  34  89 N3        30.29R
MT COMFORT *+  CLEAR     36  34  93 N5        30.27R
SHELBYVILLE    CLEAR     41  35  79 NE7       30.26R
ZIONSVILLE +   CLEAR     36  32  87 N3        30.28R

$$

INZ033-034-041-042-049-050-058-059-221100-
EAST CENTRAL INDIANA

CITY           SKY/WX    TMP DP  RH WIND       PRES   REMARKS
MUNCIE         CLOUDY    42  37  82 N6        30.26R

$$

INZ060-061-067>069-081>083-085>088-221100-
SOUTHWEST INDIANA

CITY           SKY/WX    TMP DP  RH WIND       PRES   REMARKS
EVANSVILLE     CLEAR     44  41  89 N6        30.24R
HUNTINGBURG *+ CLEAR     39  36  87 NE6       30.25R
WASHINGTON +   CLEAR     39  39 100 CALM      30.25R FOG

$$

INZ062-063-066-070>080-084-089>092-221100-
SOUTH CENTRAL AND SOUTHEAST INDIANA

CITY           SKY/WX    TMP DP  RH WIND       PRES   REMARKS
BLOOMINGTON    CLEAR     34  34 100 CALM      30.25R
NORTH VERNON + CLEAR     43  43 100 N6        30.25R

$$




USA.gov is the U.S. government's official web portal to all federal, state and local government web resources and services.